Starlink 11678

operational
NORAD ID: 64326 Int'l Des: 2025-124 Owner: SPXS Country: US Constellation: starlink
LEOCIRCULAR

Über Starlink 11678

Beschreibung wird geladen...

Live-Position

3D-Globus wird geladen...

Nächste Überflüge

Höhenverlauf

Altitude vs Time

uPlot chart will show altitude changes over time

Zweizeiliger Elementsatz

1 64326U 25124K 26095.08227552 .00318505 00000-0 23804-2 0 9999
2 64326 43.0003 230.2721 0001941 49.4069 310.6968 15.70953974 46987
Epoch: 5. Apr. 2026 • Age: 14 hours

Aktueller Status

Höhe 353.9 km
Geschwindigkeit 7.70 km/s
Subsatellitenpunkt 26.15°N, 173.75°W
Startdatum 10. Juni 2025
Alter 0.8 years
Typ internet

Technische Details

Klassifizierung Payload
Masse 960.00 kg
Trockenmasse 910.00 kg
Gesamtmasse 960.00 kg
Länge 0.30 m
Durchmesser 4.10 m
Spannweite 29.00 m
Form Box + pan
Hersteller SPXS
Bus-Typ Starlink V2MD
Phasenstatus In Orbit
Besitzer/Staat SPXS/US

Große Konstellationen

Loading constellations...